星链-36923(STARLINK-36923)

导读

STARLINK-36923(NORAD编号68016)是美国SpaceX公司星链(Starlink)星座中的一颗低轨互联网卫星,隶属于SpaceX全球卫星互联网项目。星链项目计划部署约4.2万颗低轨卫星,旨在为全球提供高速低延迟互联网服务,重点覆盖地面基础设施难以覆盖的偏远地区、海洋与航空场景。 该卫星运行于近地轨道,是星链大规模组网的组成部分,2026年SpaceX启动包括该卫星在内的4400颗星链卫星降轨计划,将轨道高度从550公里降至480公里,以降低太空碰撞风险,减少空间碎片隐患,提升轨道运行安全性。

Basic Information
目录编号:
68016
目录名称:
STARLINK-36923
国际标识:
2026-040B
轨道中心:
EARTH
卫星名称:
星链-36923
卫星全名:
星链-36923(STARLINK-36923)
卫星状态:
在轨 (已飞行188 天)
发射日期:
2026-03-01 UTC
国别 :
美国 (US)
星等 :
--
Orbit Information
数据来源 国际轨道数据
星历时间: 2026-09-04T15:37:57+0800
1天前
查看轨道信息
半长轴: 6843.665km
偏心率: 0.0001656
轨道倾角: 97.284°
近地点辐角 93.563°
升交点赤经 194.818°
平近点角 266.580°
近地点: 464.394km
远地点: 466.662km
周期: 93.906分钟
每日圈数: 15.334502
Detailed Information
固有亮度:
5
最大亮度:
2.5
卫星平台:
Starlink V1.0
覆盖范围:
全球
运营商:
太空探索技术公司
运营商所在国:
美国
制造商(研发单位):
太空探索技术公司
制造商所在国:
美国
使用方式:
暂无
Satellite Introduction
Starlink 计划是 SpaceX 推出的全球卫星互联网项目,通过发射低轨道卫星,为全球尤其是偏远地区提供高速、低延迟的互联网服务。自 2019 年起,Starlink 已部署数千颗卫星,旨在缩小全球数字鸿沟,推动互联网普及。该项目还为军事、航空等行业提供通信支持,带来广泛经济效益。
2D Orbit Map
3D Orbit Map
Orbit Altitude Analysis Chart
Orbit Inclination Analysis Chart
Orbit Comprehensive Analysis Chart
View Comprehensive Chart
Conjunction Data List
Event ID Objects TCA Miss Dist (km) Collision Risk Probability Collision Risk Index (CRI) Action
CDM_260901-062606-538706-801621
2026-09-01T
06:26:30+0000
1.665 km
极远距离
3.679688E-6 低风险 0.46
CDM_260831-135906-801606-821921
2026-08-31T
13:59:40+0000
1.944 km
极远距离
2.254412E-6 低风险 0.42
CDM_260905-155405-766606-801621
2026-09-05T
15:54:54+0000
1.908 km
极远距离
2.167448E-6 低风险 0.42
CDM_260906-154605-248506-801621
2026-09-06T
15:46:47+0000
2.489 km
极远距离
1.607158E-6 低风险 0.39
CDM_260901-090405-210806-801622
2026-09-01T
09:04:13+0000
2.730 km
极远距离
1.511712E-6 低风险 0.39
CDM_260903-110606-166406-801621
2026-09-03T
11:06:23+0000
2.922 km
极远距离
1.357927E-6 低风险 0.38
CDM_260906-100706-489106-801621
OBJECT R (64891)
2026-09-06T
10:07:47+0000
2.221 km
极远距离
8.763369E-7 极低风险 0.34